Truth Or Consequences, NM

12:13 PM MDT on March 24, 2017 (GMT -0600)
Truth Or Consequences Municipal

Weather History for KTCS - November, 2012

Change the Weather History Date:

Tuesday, November 6, 2012

  Actual Average Record
Temperature  
Mean Temperature 62 °F -  
Max Temperature 76 °F 67 °F 76 °F (2012)
Min Temperature 48 °F 40 °F 33 °F (2000)
Degree Days  
Heating Degree Days 3    
Month to date heating degree days 24  
Since 1 July heating degree days 110  
Growing Degree Days 12 (Base 50)    
Moisture  
Dew Point 21 °F    
Average Humidity 23    
Maximum Humidity 32    
Minimum Humidity 14    
Precipitation  
Precipitation 0.00 in - 0.52 in (2000)
Month to date precipitation 0.00  
Year to date precipitation 2.59  
Sea Level Pressure  
Sea Level Pressure 30.07 in    
Wind  
Wind Speed 6 mph (NNW)    
Max Wind Speed 14 mph    
Max Gust Speed 16 mph    
Visibility 10 miles    
Events      
T = Trace of Precipitation, MM = Missing Value Source: NWS Daily Summary

Daily Weather History Graph

Daily Weather History Graph

Search for Another Location

Airport or City:

Trip Planner

Search our weather history database for the weather conditions in past years. The results will help you decide how hot, cold, wet, or windy it might be!

Date:

Astronomy

Nov. 06, 2012 Rise Set
Actual Time 6:32 AM MST 5:12 PM MST
Civil Twilight 6:06 AM MST 5:38 PM MST
Nautical Twilight 5:36 AM MST 6:08 PM MST
Astronomical Twilight 5:07 AM MST 6:37 PM MST
Moon 11:50 PM MST (11/6) 12:28 PM MST (11/6)
Length of Visible Light 11h 32m
Length of Day
10h 40m
Waning Gibbous, 52% of the Moon is Illuminated
Nov 6
Waning Gibbous
Nov 6
Last Quarter
Nov 13
New
Nov 20
First Quarter
Nov 28
Full

Hourly Weather History & Observations

Time (MST) Temp. Dew Point Humidity Pressure Visibility Wind Dir Wind Speed Gust Speed Precip Events Conditions
12:53 AM 53.1 °F 17.1 °F 24% 30.05 in 10.0 mi West 9.2 mph - N/A   Clear
1:53 AM 52.0 °F 17.1 °F 25% 30.08 in 10.0 mi NNW 6.9 mph - N/A   Clear
2:53 AM 51.1 °F 19.0 °F 28% 30.07 in 10.0 mi NW 4.6 mph - N/A   Clear
3:53 AM 52.0 °F 21.0 °F 30% 30.06 in 10.0 mi NNW 9.2 mph - N/A   Clear
4:53 AM 51.1 °F 21.0 °F 31% 30.08 in 10.0 mi North 3.5 mph - N/A   Clear
5:53 AM 48.9 °F 19.9 °F 32% 30.10 in 10.0 mi WNW 8.1 mph - N/A   Clear
6:53 AM 50.0 °F 21.0 °F 32% 30.14 in 10.0 mi NW 6.9 mph - N/A   Clear
7:53 AM 57.0 °F 21.9 °F 26% 30.15 in 10.0 mi North 8.1 mph - N/A   Clear
8:53 AM 60.1 °F 21.9 °F 23% 30.16 in 10.0 mi NNE 6.9 mph - N/A   Clear
9:53 AM 64.0 °F 21.9 °F 20% 30.14 in 10.0 mi North 11.5 mph - N/A   Clear
10:53 AM 66.9 °F 21.9 °F 18% 30.12 in 10.0 mi ENE 5.8 mph - N/A   Clear
11:53 AM 71.1 °F 23.0 °F 16% 30.09 in 10.0 mi East 4.6 mph - N/A   Clear
12:53 PM 72.0 °F 24.1 °F 17% 30.05 in 10.0 mi Calm Calm - N/A   Clear
1:53 PM 73.9 °F 23.0 °F 15% 30.02 in 10.0 mi Variable 3.5 mph - N/A   Clear
2:53 PM 73.9 °F 23.0 °F 15% 30.01 in 10.0 mi Calm Calm - N/A   Clear
3:53 PM 75.0 °F 23.0 °F 14% 30.00 in 10.0 mi South 4.6 mph - N/A   Clear
4:53 PM 73.0 °F 21.9 °F 15% 30.01 in 10.0 mi East 3.5 mph - N/A   Clear
5:53 PM 66.9 °F 21.0 °F 17% 30.04 in 10.0 mi North 4.6 mph - N/A   Clear
6:53 PM 66.9 °F 21.9 °F 18% 30.05 in 10.0 mi Calm Calm - N/A   Clear
7:53 PM 57.0 °F 19.0 °F 23% 30.06 in 10.0 mi WNW 6.9 mph - N/A   Clear
8:53 PM 55.9 °F 19.0 °F 24% 30.07 in 10.0 mi WNW 5.8 mph - N/A   Clear
9:53 PM 53.1 °F 19.0 °F 26% 30.07 in 10.0 mi WNW 6.9 mph - N/A   Clear
10:53 PM 54.0 °F 19.9 °F 26% 30.06 in 10.0 mi NW 8.1 mph - N/A   Clear
11:53 PM 50.0 °F 19.9 °F 31% 30.06 in 10.0 mi WNW 4.6 mph - N/A   Clear